This is the latest recevied weather packets stored in our database for station/object YM2KA-13. If no packets are shown the sender has not sent any weather packets the latest 10 day(s).
| Time | Temp. | Humidity | Pressure | Rain* | Wind** | Luminosity | Snow |
|---|---|---|---|---|---|---|---|
| 1777535588 | 16.11° C | 35% | 1013.2 hPa | 0 mm | - | - | - |
| 1777535070 | 16.11° C | 35% | 1013.3 hPa | 0 mm | - | - | - |
| 1777534694 | 16.11° C | 37% | 1013.3 hPa | 0 mm | - | - | - |
| 1777534471 | 16.11° C | 37% | 1013.3 hPa | 0 mm | - | - | - |
| 1777533872 | 15.56° C | 38% | 1013.4 hPa | 0 mm | - | - | - |
| 1777533791 | 15.56° C | 39% | 1013.4 hPa | 0 mm | - | - | - |
| 1777533274 | 15.56° C | 39% | 1013.4 hPa | 0 mm | - | - | - |
| 1777532888 | 15.56° C | 42% | 1013.4 hPa | 0 mm | - | - | - |
| 1777532674 | 15° C | 42% | 1013.3 hPa | 0 mm | - | - | - |
| 1777532076 | 15° C | 42% | 1013.3 hPa | 0 mm | - | - | - |
| 1777531994 | 15° C | 43% | 1013.3 hPa | 0 mm | - | - | - |
| 1777531477 | 14.44° C | 45% | 1013.3 hPa | 0 mm | - | - | - |
| 1777531091 | 15° C | 44% | 1013.3 hPa | 0 mm | - | - | - |
| 1777530877 | 15° C | 43% | 1013.3 hPa | 0 mm | - | - | - |
| 1777530269 | 14.44° C | 48% | 1013.3 hPa | 0 mm | - | - | - |
| 1777530188 | 13.89° C | 47% | 1013.3 hPa | 0 mm | - | - | - |
| 1777529670 | 13.89° C | 47% | 1013.4 hPa | 0 mm | - | - | - |
| 1777529294 | 13.33° C | 47% | 1013.5 hPa | 0 mm | - | - | - |
| 1777529070 | 13.33° C | 49% | 1013.5 hPa | 0 mm | - | - | - |
| 1777528472 | 13.33° C | 50% | 1013.6 hPa | 0 mm | - | - | - |
| 1777528391 | 12.78° C | 50% | 1013.7 hPa | 0 mm | - | - | - |
| 1777527873 | 12.78° C | 49% | 1013.7 hPa | 0 mm | - | - | - |
| 1777527488 | 12.78° C | 49% | 1013.7 hPa | 0 mm | - | - | - |
| 1777527274 | 12.78° C | 49% | 1013.7 hPa | 0 mm | - | - | - |
| 1777526675 | 12.22° C | 50% | 1013.8 hPa | 0 mm | - | - | - |
* Rain latest hour (hover to see other rain measurements)
** Current wind speed in m/s (hover to see current wind gust speed)